Location: Al Mulaqqa?ah
(24.1833°N, 32.8833°E)
Time: 21:01:36
(UTC+00:00)

CZ-2D R/B - Pass Details

Date: 26 September 2021
Orbit: 521 x 535 km, 97.4° (Epoch: 25 October)

Event Time Altitude Azimuth Distance (km) Brightness Sun altitude
Rises 15:58:58 0° 171° (S) 2,631 6.7 -5.0°
Reaches altitude 10° 16:01:03 10° 172° (S) 1,746 5.8 -5.5°
Maximum altitude 16:04:49 79° 259° (WSW) 534 3.4 -6.4°
Drops below altitude 10° 16:08:36 10° 346° (NNW) 1,756 6.1 -7.2°
Sets 16:10:42 0° 348° (NNW) 2,648 7.0 -7.7°
